Notices

What's New in latest Release from April 7th, 2021:

- Updated Glossary, including Speed of Maximum Gust, and Total Hourly Precipitation

- Updated national and regional climate services offices contacts and prices information

- Addition of station inventory lists for 1981-2010, 1971-2000, and 1961-1990 Normals.

If you haven't already, please take our survey and provide feedback about our website: https://eccc.sondage-survey.ca/f/LanguageSelection.aspx?s=442ca660-fcf1-47c0-95a9-59707d6fd709

Hourly Data Report for April 02, 2020

MIRAMICHI RCS
NEW BRUNSWICK
Current Station Operator: ECCC - MSC

47°00'34.000" N
65°27'54.000" W
33.00 m
8100989
71744
ACQ

Download Data

Hourly Data (April 2020)
Hourly Data Report for April 2, 2020
TIME
LST
Temp Definition
°C
Dew Point Definition
°C
Rel Hum Definition
%
Precip. Amount Definition
mm

Wind Dir Definition
10's deg

Wind Spd Definition
km/h
Visibility Definition
km
Stn Press Definition
kPa
Hmdx Definition


Wind Chill Definition


Weather Definition


00:00 0.9 0.8 99 LegendMM 3 12   100.46     LegendNANA
01:00 0.9 0.5 97 LegendMM 3 13   100.39     LegendNANA
02:00 1.1 1.1 100 LegendMM 3 10   100.38     LegendNANA
03:00 1.4 1.3 99 LegendMM 5 21   100.33     LegendNANA
04:00 1.2 1.1 99 LegendMM 5 24   100.30     LegendNANA
05:00 1.0 1.0 100 LegendMM 5 25   100.33     LegendNANA
06:00 0.9 0.8 99 LegendMM 5 24   100.34     LegendNANA
07:00 1.2 1.1 99 LegendMM 5 25   100.42     LegendNANA
08:00 1.1 1.1 100 LegendMM 5 25   100.41     LegendNANA
09:00 1.3 1.3 100 LegendMM 5 24   100.48     LegendNANA
10:00 1.5 1.5 100 LegendMM 5 25   100.47     LegendNANA
11:00 1.7 1.7 100 LegendMM 6 26   100.49     LegendNANA
12:00 1.9 1.7 99 LegendMM 5 25   100.53     LegendNANA
13:00 2.7 2.3 97 LegendMM 6 35   100.53     LegendNANA
14:00 1.8 1.7 99 LegendMM 5 31   100.57     LegendNANA
15:00 2.1 2.1 100 LegendMM 5 34   100.54     LegendNANA
16:00 2.2 2.2 100 LegendMM 5 35   100.56     LegendNANA
17:00 2.0 2.0 100 LegendMM 6 27   100.62     LegendNANA
18:00 2.4 2.4 100 LegendMM 6 35   100.61     LegendNANA
19:00 2.8 2.5 98 LegendMM 6 37   100.65     LegendNANA
20:00 3.2 2.5 95 LegendMM 6 38   100.73     LegendNANA
21:00 3.5 2.2 91 LegendMM 6 42   100.76     LegendNANA
22:00 3.9 2.0 87 LegendMM 6 42   100.76     LegendNANA
23:00 3.7 1.8 87 LegendMM 6 40   100.83     LegendNANA

Notes on Data Quality.

Legend

  • E = Estimated
  • M = Missing
  • NA = Not Available*
  • [empty] = Indicates an unobserved value
Date modified: